DW1824 Weather Reports


time (UTC)temp
C
wind
direction
speed
KPH
gust
KPH
rain 1hr
cm
rain 24hr
cm
rain mn
cm
humidity
%
barometer
mb
20260507132326 17 49 8.0 19.3 0.00 0.08 0.00 89 1016.3
20260507131336 17 79 9.7 22.5 0.00 0.08 0.00 89 1016.4
20260507130339 17 350 11.3 29.0 0.00 0.08 0.00 89 1016.4
20260507125327 17 298 8.0 19.3 0.00 0.08 0.00 89 1016.7
20260507124334 18 350 4.8 25.7 0.00 0.08 0.00 89 1016.7
20260507123338 18 345 8.0 17.7 0.00 0.08 0.00 89 1016.5
20260507122323 18 321 4.8 20.9 0.00 0.08 0.00 89 1016.5
20260507121331 18 345 6.4 24.1 0.00 0.08 0.00 88 1016.0
20260507120335 18 323 6.4 19.3 0.00 0.08 0.00 88 1015.6
20260507115326 18 329 6.4 16.1 0.00 0.08 0.00 88 1015.4
20260507114334 18 335 8.0 20.9 0.00 0.08 0.00 88 1014.9
20260507113338 18 340 8.0 22.5 0.00 0.08 0.00 88 1014.7
20260507112325 18 340 9.7 19.3 0.00 0.08 0.00 87 1015.2
20260507111331 18 356 4.8 16.1 0.00 0.08 0.00 87 1015.1
20260507110355 18 360 6.4 17.7 0.00 0.08 0.00 87 1015.0
20260507105324 18 340 4.8 17.7 0.00 0.08 0.00 87 1014.6
20260507104350 18 323 3.2 9.7 0.00 0.08 0.00 87 1014.6
20260507103332 18 327 4.8 14.5 0.00 0.08 0.00 86 1014.3
20260507102338 18 354 3.2 16.1 0.00 0.08 0.00 86 1014.7
20260507101324 18 345 3.2 17.7 0.00 0.08 0.00 86 1014.4
20260507100332 18 340 4.8 14.5 0.00 0.08 0.00 86 1014.4
20260507095340 18 357 4.8 14.5 0.00 0.08 0.00 86 1014.1
20260507094327 18 9 3.2 16.1 0.00 0.08 0.00 86 1014.1
20260507093350 18 327 4.8 12.9 0.00 0.08 0.00 86 1013.9
20260507092340 18 340 3.2 9.7 0.00 0.08 0.00 86 1014.0
20260507091326 18 336 3.2 16.1 0.00 0.08 0.00 85 1013.9
20260507090329 18 8 1.6 8.0 0.00 0.08 0.00 85 1013.7
20260507085334 18 11 3.2 12.9 0.00 0.08 0.00 85 1013.6
20260507084338 18 12 3.2 12.9 0.00 0.08 0.00 85 1013.7
20260507083345 18 21 4.8 14.5 0.00 0.08 0.00 85 1013.7
20260507082330 18 10 6.4 14.5 0.00 0.08 0.00 85 1013.7
20260507081359 18 25 4.8 14.5 0.00 0.08 0.00 85 1013.9
20260507080325 18 38 4.8 19.3 0.00 0.08 0.00 84 1013.8
20260507075331 18 350 4.8 14.5 0.00 0.08 0.00 84 1013.8
20260507074337 18 340 3.2 22.5 0.00 0.08 0.00 83 1013.9
20260507073339 18 350 6.4 20.9 0.00 0.08 0.00 83 1013.9
20260507072326 18 356 6.4 19.3 0.00 0.08 0.00 83 1013.9
20260507071332 18 12 6.4 19.3 0.00 0.08 0.00 83 1014.3
20260507070338 18 11 4.8 19.3 0.00 0.08 0.00 83 1014.2
20260507065327 18 24 6.4 19.3 0.00 0.08 0.00 83 1014.2
20260507064332 18 319 6.4 27.4 0.00 0.08 0.00 83 1014.3
20260507063333 18 12 11.3 25.7 0.00 0.08 0.00 83 1014.4
20260507062340 18 2 8.0 24.1 0.00 0.08 0.00 83 1014.3
20260507061326 18 327 4.8 22.5 0.00 0.08 0.00 83 1014.5
20260507060330 18 2 4.8 16.1 0.00 0.08 0.00 83 1014.2
20260507055357 18 304 6.4 22.5 0.00 0.08 0.00 83 1014.3
20260507054402 18 301 6.4 17.7 0.00 0.08 0.00 83 1013.9
20260507053325 19 29 4.8 20.9 0.00 0.08 0.00 82 1013.7
20260507052334 19 2 9.7 24.1 0.00 0.08 0.00 82 1013.9
20260507051343 19 281 9.7 20.9 0.00 0.08 0.00 82 1013.7
20260507050328 19 350 6.4 24.1 0.00 0.08 0.00 82 1013.8
20260507045337 19 309 6.4 16.1 0.00 0.08 0.08 82 1014.0
20260507044342 19 22 6.4 22.5 0.00 0.08 0.08 82 1013.7
20260507043348 19 360 9.7 24.1 0.00 0.08 0.08 81 1013.8
20260507042334 19 345 8.0 24.1 0.00 0.08 0.08 81 1013.8
20260507041324 20 17 6.4 22.5 0.00 0.08 0.08 81 1013.8
20260507040348 20 335 6.4 25.7 0.00 0.08 0.08 81 1013.5
20260507035354 20 354 8.0 25.7 0.00 0.08 0.08 81 1013.5
20260507034342 20 321 8.0 16.1 0.00 0.08 0.08 81 1013.4
20260507033328 20 345 6.4 20.9 0.00 0.08 0.08 80 1013.4
20260507032335 20 345 9.7 19.3 0.00 0.08 0.08 80 1013.6
20260507031344 20 301 8.0 19.3 0.00 0.08 0.08 80 1013.3
20260507030332 21 1 6.4 25.7 0.00 0.08 0.08 79 1013.0
20260507025324 21 340 8.0 22.5 0.00 0.08 0.08 80 1012.9
20260507024332 21 333 9.7 20.9 0.00 0.08 0.08 80 1012.8
20260507023338 21 3 6.4 19.3 0.00 0.08 0.08 80 1012.4
20260507022326 21 335 4.8 16.1 0.00 0.08 0.08 81 1012.3
20260507021334 21 345 9.7 20.9 0.00 0.08 0.08 81 1011.9
20260507020340 21 356 4.8 14.5 0.00 0.08 0.08 81 1011.7
20260507015329 21 335 4.8 14.5 0.00 0.08 0.08 80 1011.5
20260507014402 21 323 4.8 12.9 0.00 0.08 0.08 80 1011.3
20260507013327 21 328 6.4 17.7 0.00 0.08 0.08 79 1011.3
20260507012334 21 292 8.0 19.3 0.00 0.08 0.08 79 1011.0
20260507011339 21 360 6.4 20.9 0.00 0.08 0.08 79 1010.8
20260507010323 22 323 6.4 16.1 0.00 0.08 0.08 79 1010.8
20260507005331 22 316 8.0 19.3 0.00 0.08 0.08 79 1010.5
20260507004337 22 323 9.7 22.5 0.00 0.08 0.08 79 1010.3
20260507003325 22 345 6.4 22.5 0.00 0.08 0.08 79 1010.3
20260507002332 22 318 8.0 29.0 0.00 0.08 0.08 79 1010.2
20260507001339 22 287 9.7 20.9 0.00 0.08 0.08 79 1010.0
20260507000324 22 350 8.0 20.9 0.00 0.08 0.08 79 1009.9
20260506235333 22 333 9.7 22.5 0.00 0.08 0.08 78 1009.8
20260506234359 22 300 8.0 25.7 0.00 0.08 0.08 78 1009.8
20260506233324 23 304 11.3 25.7 0.00 0.08 0.08 78 1009.5
20260506232333 24 289 11.3 27.4 0.00 0.08 0.08 78 1009.5
20260506231340 26 279 12.9 25.7 0.00 0.08 0.08 74 1009.3
20260506230325 28 288 4.8 9.7 0.00 0.08 0.08 83 1008.7
20260506225330 28 330 6.4 16.1 0.00 0.08 0.08 82 1008.7
20260506224336 29 350 3.2 8.0 0.00 0.08 0.08 83 1008.6
20260506223340 29 354 3.2 4.8 0.00 0.08 0.08 83 1008.7
20260506222327 28 11 1.6 4.8 0.00 0.08 0.08 83 1008.7
20260506221337 29 340 0.0 1.6 0.00 0.08 0.08 83 1008.6
20260506220342 29 350 3.2 4.8 0.00 0.08 0.08 82 1008.6
20260506215332 29 340 0.0 4.8 0.00 0.08 0.08 82 1008.6
20260506214341 29 290 0.0 0.0 0.00 0.08 0.08 80 1008.5
20260506213346 28 350 0.0 0.0 0.00 0.08 0.08 80 1008.4
20260506212330 28 350 0.0 0.0 0.00 0.08 0.08 81 1008.5
20260506211337 28 300 0.0 0.0 0.00 0.08 0.08 82 1008.6
20260506210326 28 288 0.0 0.0 0.00 0.08 0.08 83 1008.7
20260506205332 28 156 0.0 0.0 0.00 0.08 0.08 82 1008.6
20260506204338 28 202 0.0 0.0 0.00 0.08 0.08 82 1008.7
20260506203342 28 308 0.0 4.8 0.00 0.08 0.08 82 1008.9
20260506202330 28 200 1.6 6.4 0.00 0.08 0.08 80 1008.8
20260506201338 28 202 0.0 3.2 0.00 0.08 0.08 81 1009.1
20260506200341 28 125 4.8 6.4 0.00 0.08 0.08 81 1009.2
20260506195328 28 127 3.2 8.0 0.00 0.08 0.08 81 1009.1
20260506194339 28 122 0.0 6.4 0.00 0.08 0.08 80 1009.2
20260506193342 28 125 1.6 6.4 0.00 0.08 0.08 82 1009.2
20260506192330 28 108 1.6 6.4 0.03 0.08 0.08 82 1009.4
20260506191339 28 131 6.4 8.0 0.03 0.08 0.08 83 1009.5
20260506190341 28 129 1.6 8.0 0.03 0.08 0.08 82 1009.6
20260506185349 28 82 3.2 4.8 0.03 0.08 0.08 84 1009.6
20260506184336 27 34 0.0 1.6 0.03 0.08 0.08 85 1009.8
20260506183345 27 107 1.6 6.4 0.05 0.08 0.08 85 1009.8
20260506182351 27 130 0.0 4.8 0.03 0.05 0.05 86 1010.0
20260506181336 27 117 3.2 6.4 0.03 0.05 0.05 87 1010.1
20260506180338 26 135 0.0 4.8 0.03 0.05 0.05 89 1010.3
20260506175325 26 123 0.0 3.2 0.03 0.05 0.05 90 1010.5
20260506174352 26 188 1.6 4.8 0.03 0.05 0.05 89 1010.8
20260506173336 26 110 1.6 4.8 0.00 0.03 0.03 88 1010.9
20260506172324 26 23 0.0 1.6 0.03 0.03 0.03 90 1011.0
20260506171355 26 4 0.0 1.6 0.03 0.03 0.03 90 1011.2
20260506170400 26 4 0.0 1.6 0.03 0.03 0.03 90 1011.2
20260506165328 26 128 0.0 0.0 0.03 0.03 0.03 90 1011.3
20260506164336 26 128 0.0 1.6 0.03 0.03 0.03 89 1011.2
20260506163359 26 129 0.0 6.4 0.03 0.03 0.03 87 1011.1
20260506162324 26 123 1.6 6.4 0.00 0.00 0.00 86 1011.0
20260506161331 26 128 3.2 8.0 0.00 0.00 0.00 85 1010.9
20260506160334 26 130 3.2 11.3 0.00 0.00 0.00 86 1010.5
20260506155325 26 140 0.0 4.8 0.00 0.00 0.00 87 1010.5
20260506154333 26 130 0.0 3.2 0.00 0.00 0.00 87 1010.4
20260506153340 26 121 1.6 8.0 0.00 0.00 0.00 87 1010.4
20260506152327 26 142 0.0 6.4 0.00 0.00 0.00 87 1010.5
20260506151335 26 133 3.2 6.4 0.00 0.00 0.00 87 1010.5
20260506150358 26 141 1.6 8.0 0.00 0.00 0.00 87 1010.3
20260506145326 26 130 6.4 8.0 0.00 0.00 0.00 88 1010.1
20260506144337 26 129 3.2 6.4 0.00 0.00 0.00 90 1010.1
20260506143401 26 125 3.2 9.7 0.00 0.00 0.00 90 1009.8
20260506142328 25 124 3.2 9.7 0.00 0.00 0.00 91 1009.5
20260506141336 25 131 4.8 12.9 0.00 0.00 0.00 91 1009.4
20260506140340 25 123 3.2 9.7 0.00 0.00 0.00 92 1009.5
20260506135329 25 129 3.2 8.0 0.00 0.00 0.00 92 1009.6
20260506134337 25 111 4.8 11.3 0.00 0.00 0.00 93 1009.6
20260506133326 25 114 6.4 14.5 0.00 0.00 0.00 93 1009.6